Weather History for Patuxent River, MD

Change the Weather History Date:

Saturday, February 2, 2013

  Actual Average Record
Temperature  
Mean Temperature 26 °F -  
Max Temperature 34 °F 47 °F 55 °F (2014)
Min Temperature 19 °F 29 °F 37 °F (2014)
Degree Days  
Heating Degree Days 38    
Moisture  
Dew Point 11 °F    
Average Humidity 52    
Maximum Humidity 82    
Minimum Humidity 32    
Precipitation  
Precipitation 0.00 in - - ()
Sea Level Pressure  
Sea Level Pressure 30.24 in    
Wind  
Wind Speed 8 mph (SSW)    
Max Wind Speed 17 mph    
Max Gust Speed 18 mph    
Visibility 9 miles    
Events Snow    
Averages and records for this station are not official NWS values.
T = Trace of Precipitation, MM = Missing Value Source: NWS Daily Summary

Daily Weather History Graph

Daily Weather History Graph

Search for Another Location

Airport:

Trip Planner

Search our weather history database for the weather conditions in past years. The results will help you decide how hot, cold, wet, or windy it might be!

Date:

Astronomy

Feb. 02, 2013 Rise Set
Actual Time 7:09 AM EST 5:29 PM EST
Civil Twilight 6:41 AM EST 5:57 PM EST
Nautical Twilight 6:10 AM EST 6:29 PM EST
Astronomical Twilight 5:39 AM EST 7:00 PM EST
Moon No Moon Rise 10:25 AM EST (2/2)
Length of Visible Light 11h 15m
Length of Day
10h 20m
Waning Gibbous, 60% of the Moon is Illuminated
Feb 2
Waning Gibbous
Feb 3
Last Quarter
Feb 10
New
Feb 17
First Quarter
Feb 25
Full

Hourly Weather History & Observations

Time (EST) Temp. Windchill Dew Point Humidity Pressure Visibility Wind Dir Wind Speed Gust Speed Precip Events Conditions
12:52 AM 23.0 °F 13.1 °F 5.0 °F 46% 30.40 in 10.0 mi West 9.2 mph - N/A   Clear
1:52 AM 23.0 °F 9.2 °F 3.9 °F 44% 30.38 in 10.0 mi NW 17.3 mph - N/A   Clear
2:52 AM 21.9 °F 9.2 °F 3.0 °F 44% 30.38 in 10.0 mi NW 13.8 mph - N/A   Clear
3:52 AM 21.0 °F 9.9 °F 3.9 °F 48% 30.37 in 10.0 mi NW 10.4 mph - N/A   Clear
4:52 AM 21.9 °F 13.4 °F 6.1 °F 51% 30.38 in 10.0 mi NW 6.9 mph - N/A   Clear
5:52 AM 19.0 °F 12.3 °F 10.0 °F 68% 30.38 in 10.0 mi SW 4.6 mph - N/A   Clear
6:09 AM 19.4 °F 14.3 °F 6.8 °F 58% 30.38 in 10.0 mi SSW 3.5 mph - N/A   Mostly Cloudy
6:52 AM 19.0 °F 12.3 °F 6.1 °F 57% 30.39 in 10.0 mi SSW 4.6 mph - N/A   Mostly Cloudy
7:52 AM 19.9 °F 14.9 °F 6.1 °F 55% 30.39 in 10.0 mi SSW 3.5 mph - N/A   Mostly Cloudy
8:52 AM 24.1 °F - 3.0 °F 40% 30.38 in 10.0 mi Calm Calm - N/A   Scattered Clouds
9:52 AM 27.0 °F 20.5 °F 7.0 °F 43% 30.36 in 10.0 mi SSE 5.8 mph - N/A   Partly Cloudy
10:52 AM 30.0 °F 22.4 °F 5.0 °F 35% 30.35 in 10.0 mi SSW 8.1 mph - N/A   Scattered Clouds
11:52 AM 30.0 °F 21.1 °F 7.0 °F 38% 30.30 in 10.0 mi South 10.4 mph - N/A   Mostly Cloudy
12:52 PM 33.1 °F 25.5 °F 6.1 °F 32% 30.25 in 10.0 mi SSW 9.2 mph 17.3 mph N/A   Overcast
1:52 PM 33.1 °F 24.9 °F 7.0 °F 34% 30.21 in 10.0 mi South 10.4 mph - N/A   Overcast
2:52 PM 34.0 °F 27.2 °F 7.0 °F 32% 30.19 in 10.0 mi South 8.1 mph - N/A   Overcast
3:52 PM 33.1 °F 26.1 °F 6.1 °F 32% 30.16 in 10.0 mi South 8.1 mph - N/A   Overcast
4:52 PM 33.1 °F 30.0 °F 8.1 °F 35% 30.15 in 10.0 mi SSW 3.5 mph - N/A   Overcast
5:52 PM 33.1 °F 25.5 °F 12.9 °F 43% 30.13 in 10.0 mi SSW 9.2 mph 17.3 mph N/A   Overcast
6:52 PM 33.1 °F 26.1 °F 14.0 °F 46% 30.11 in 10.0 mi South 8.1 mph 18.4 mph 0.00 in   Overcast
7:52 PM 33.1 °F 24.9 °F 18.0 °F 54% 30.12 in 10.0 mi SW 10.4 mph - 0.00 in   Overcast
8:27 PM 30.2 °F 22.6 °F 23.0 °F 75% 30.11 in 2.0 mi SSW 8.1 mph - 0.00 in Snow Light Snow
8:49 PM 30.2 °F 26.7 °F 24.8 °F 80% 30.10 in 3.0 mi South 3.5 mph - 0.00 in Snow Light Snow
8:52 PM 30.0 °F 26.5 °F 25.0 °F 82% 30.10 in 4.0 mi SSW 3.5 mph - 0.00 in Snow Light Snow
9:52 PM 30.0 °F 26.5 °F 25.0 °F 82% 30.06 in 10.0 mi SE 3.5 mph - 0.00 in   Mostly Cloudy
10:52 PM 30.0 °F 26.5 °F 25.0 °F 82% 30.05 in 10.0 mi South 3.5 mph - N/A   Overcast
11:52 PM 30.9 °F - 25.0 °F 79% 30.01 in 10.0 mi Calm Calm - N/A   Overcast